732  
ASUS43 KGLD 261808  
RWRGLD  
 
GOODLAND FORECAST AREA HOURLY WEATHER ROUNDUP  
NATIONAL WEATHER SERVICE GOODLAND KS  
1200 PM MDT THU APR 26 2018  
   
..OFFICIAL OBSERVATIONS
 
 
 
CITY SKY/WX TMP DP RH WIND PRES REMARKS
 
GOODLAND KS SUNNY 60 33 36 N31G46 30.13R  
HILL CITY KS MOSUNNY 64 42 44 NE20G31 30.06R  
IMPERIAL NEB SUNNY 61 30 31 N32G49 30.18R  
MCCOOK NEB PTSUNNY 62 36 37 MISG 30.09R  
AKRON CO PTSUNNY 56 30 37 N26G37 30.26R  
BURLINGTON CO NOT AVBL  
LIMON CO PTSUNNY 53 27 36 N23G38 30.26R  

 
   
..UNOFFICIAL OBSERVATIONS
 
 
 
CITY SKY/WX TMP DP RH WIND PRES REMARKS
 
COLBY KS PTSUNNY 59 37 44 N30G37 30.13R  
NORTON KS SUNNY 59 37 44 N26G32 30.07  
SHARON SPRINGS N/A 62 38 41 N21G32 N/A  
KIT CARSON CO N/A 58 31 36 MISG N/A  
YUMA CO FAIR 55 25 30 N22G37 30.22R  

 
 
 
CLICK HERE TO GO TO PREVIOUS BULLETINS.

The Nexlab KS Page
The Nexlab CO Page
The Nexlab NE Page Main Text Page